THY5QT LTFM-LEBL

Flight info

Callsign THY5QT
Flight time N/A
Altitude 40000
Route BARPE UG12 GOLDO DCT SUTIS DCT TALAS DCT ORRIH DCT DIRES DCT PIKEL/N0449F390 DCT BAR DCT EPIKU/N0453F400 DCT GINOX DCT KIFMI/N0390F280 DCT ELVOP DCT MUREN/N0404F290 M601 VERSO
Aircraft A333/H-SDE3GHIJ2J3J5M1RVWXY/LB2D1

Departure

Time N/A
Airport İstanbul Airport (LTFM)

Arrival

Time 2026-05-05 17:33
Airport Josep Tarradellas Barcelona-El Prat Airport (LEBL)
Time Latitude Longitude Altitude Speed Heading
2026-05-05 16:01 41.12156 13.91094 40081 ft 405 kts 269°
2026-05-05 16:02 41.12080 13.87356 40081 ft 405 kts 269°
2026-05-05 16:02 41.11924 13.79896 40081 ft 405 kts 269°
2026-05-05 16:03 41.11763 13.72427 40078 ft 404 kts 269°
2026-05-05 16:03 41.11597 13.64975 40078 ft 404 kts 269°
2026-05-05 16:04 41.11427 13.57527 40076 ft 404 kts 269°
2026-05-05 16:04 41.11252 13.50078 40075 ft 404 kts 269°
2026-05-05 16:05 41.11072 13.42620 40073 ft 405 kts 268°
2026-05-05 16:05 41.10886 13.35164 40072 ft 405 kts 268°
2026-05-05 16:06 41.10696 13.27704 40070 ft 405 kts 268°
2026-05-05 16:06 41.10501 13.20251 40061 ft 405 kts 268°
2026-05-05 16:07 41.10301 13.12793 40069 ft 405 kts 268°
2026-05-05 16:07 41.10096 13.05331 40061 ft 405 kts 268°
2026-05-05 16:08 41.09886 12.97876 40061 ft 405 kts 268°
2026-05-05 16:08 41.09674 12.90474 40059 ft 405 kts 268°
2026-05-05 16:09 41.09455 12.83020 40055 ft 405 kts 268°
2026-05-05 16:09 41.09231 12.75561 40058 ft 405 kts 268°
2026-05-05 16:10 41.09002 12.68117 40053 ft 404 kts 268°
2026-05-05 16:10 41.08769 12.60680 40049 ft 404 kts 267°
2026-05-05 16:11 41.08530 12.53240 40047 ft 404 kts 268°
2026-05-05 16:12 41.08038 12.38312 40051 ft 405 kts 267°
2026-05-05 16:13 41.07397 12.19743 40038 ft 403 kts 267°
2026-05-05 16:13 41.07133 12.12327 40038 ft 403 kts 267°
2026-05-05 16:14 41.06592 11.97498 40031 ft 402 kts 266°
2026-05-05 16:15 41.06032 11.82719 40026 ft 401 kts 266°
2026-05-05 16:16 41.05456 11.67998 40020 ft 401 kts 266°
2026-05-05 16:17 41.05012 11.56932 40008 ft 401 kts 266°
2026-05-05 16:18 41.04558 11.45861 40020 ft 401 kts 266°
2026-05-05 16:19 41.04146 11.36045 40009 ft 401 kts 266°
2026-05-05 16:19 41.03671 11.24983 40008 ft 400 kts 266°
2026-05-05 16:20 41.03026 11.10323 40006 ft 400 kts 266°
2026-05-05 16:22 41.02190 10.91926 40002 ft 401 kts 266°
2026-05-05 16:23 41.01499 10.77186 39998 ft 401 kts 266°
2026-05-05 16:23 41.00968 10.66139 39993 ft 401 kts 265°
2026-05-05 16:24 41.00608 10.58768 39993 ft 401 kts 265°
2026-05-05 16:25 41.00060 10.47735 39989 ft 399 kts 265°
2026-05-05 16:25 40.99503 10.36734 39987 ft 399 kts 265°
2026-05-05 16:26 40.98744 10.22073 39973 ft 399 kts 265°
2026-05-05 16:27 40.98360 10.14793 39984 ft 398 kts 265°
2026-05-05 16:27 40.97971 10.07494 39970 ft 398 kts 265°
2026-05-05 16:28 40.97576 10.00193 39970 ft 398 kts 264°
2026-05-05 16:28 40.97177 9.92894 39970 ft 398 kts 264°
2026-05-05 16:29 40.96773 9.85594 39963 ft 398 kts 264°
2026-05-05 16:29 40.96365 9.78298 39966 ft 397 kts 264°
2026-05-05 16:30 40.95953 9.71012 39967 ft 397 kts 264°
2026-05-05 16:30 40.95535 9.63725 39966 ft 397 kts 264°
2026-05-05 16:31 40.95113 9.56435 39967 ft 397 kts 264°
2026-05-05 16:31 40.94687 9.49159 39957 ft 398 kts 264°
2026-05-05 16:32 40.94255 9.41842 39966 ft 397 kts 264°
2026-05-05 16:32 40.93821 9.34572 39962 ft 396 kts 264°
2026-05-05 16:33 40.93381 9.27308 39961 ft 396 kts 264°
2026-05-05 16:33 40.92932 9.20095 39963 ft 397 kts 263°
2026-05-05 16:34 40.92443 9.12821 39960 ft 396 kts 263°
2026-05-05 16:34 40.91974 9.05570 39960 ft 397 kts 263°
2026-05-05 16:35 40.91549 8.98267 39962 ft 398 kts 263°
2026-05-05 16:35 40.91110 8.90963 39960 ft 399 kts 263°
2026-05-05 16:36 40.90650 8.83657 39962 ft 399 kts 263°
2026-05-05 16:36 40.90177 8.76358 39957 ft 398 kts 263°
2026-05-05 16:37 40.89699 8.69062 39963 ft 398 kts 263°
2026-05-05 16:37 40.89217 8.61771 39957 ft 398 kts 263°
2026-05-05 16:38 40.88731 8.54489 39955 ft 398 kts 263°
2026-05-05 16:38 40.88243 8.47247 39955 ft 398 kts 263°
2026-05-05 16:39 40.87748 8.39962 39952 ft 398 kts 263°
2026-05-05 16:39 40.87249 8.32674 39962 ft 398 kts 262°
2026-05-05 16:40 40.86745 8.25396 39949 ft 398 kts 262°
2026-05-05 16:40 40.86236 8.18116 39949 ft 398 kts 262°
2026-05-05 16:41 40.85849 8.10813 39949 ft 400 kts 268°
2026-05-05 16:41 40.86061 8.03458 39947 ft 401 kts 270°
2026-05-05 16:42 40.86451 7.96157 39969 ft 402 kts 271°
2026-05-05 16:42 40.86708 7.92479 39951 ft 397 kts 255°
2026-05-05 16:42 40.86908 7.88852 39940 ft 397 kts 271°
2026-05-05 16:43 40.87449 7.81533 39944 ft 401 kts 272°
2026-05-05 16:43 40.88002 7.74202 39941 ft 401 kts 271°
2026-05-05 16:44 40.88517 7.66873 39941 ft 401 kts 271°
2026-05-05 16:44 40.89005 7.59587 39941 ft 401 kts 271°
2026-05-05 16:45 40.89488 7.52242 39932 ft 402 kts 271°
2026-05-05 16:45 40.89969 7.44871 39933 ft 402 kts 271°
2026-05-05 16:46 40.90446 7.37503 39936 ft 402 kts 271°
2026-05-05 16:46 40.90920 7.30130 39936 ft 402 kts 271°
2026-05-05 16:47 40.91388 7.22758 39932 ft 402 kts 271°
2026-05-05 16:47 40.91855 7.15334 39935 ft 402 kts 270°
2026-05-05 16:48 40.92310 7.08014 39937 ft 402 kts 270°
2026-05-05 16:48 40.92764 7.00637 39926 ft 402 kts 270°
2026-05-05 16:49 40.93213 6.93260 39927 ft 402 kts 270°
2026-05-05 16:49 40.93657 6.85877 39926 ft 402 kts 270°
2026-05-05 16:50 40.94097 6.78500 39926 ft 402 kts 270°
2026-05-05 16:50 40.94532 6.71131 39925 ft 402 kts 270°
2026-05-05 16:51 40.94960 6.63770 39921 ft 402 kts 270°
2026-05-05 16:51 40.95384 6.56413 39921 ft 402 kts 270°
2026-05-05 16:52 40.95805 6.49031 39914 ft 402 kts 270°
2026-05-05 16:52 40.96221 6.41662 39918 ft 401 kts 270°
2026-05-05 16:53 40.96632 6.34308 39917 ft 401 kts 270°
2026-05-05 16:53 40.97035 6.27001 39917 ft 400 kts 270°
2026-05-05 16:54 40.97435 6.19652 39911 ft 401 kts 270°
2026-05-05 16:54 40.97834 6.12250 39911 ft 401 kts 270°
2026-05-05 16:55 40.98222 6.04956 39914 ft 400 kts 270°
2026-05-05 16:55 40.98609 5.97605 39911 ft 400 kts 269°
2026-05-05 16:56 40.98990 5.90261 39906 ft 400 kts 269°
2026-05-05 16:56 40.99367 5.82910 39906 ft 400 kts 269°
2026-05-05 16:57 40.99617 5.77978 39906 ft 400 kts 269°
2026-05-05 16:57 40.99896 5.72447 39906 ft 400 kts 269°
2026-05-05 16:58 41.00051 5.69341 39912 ft 400 kts 269°
2026-05-05 16:58 41.00415 5.61975 39898 ft 401 kts 269°
2026-05-05 16:59 41.00775 5.54601 39897 ft 402 kts 269°
2026-05-05 16:59 41.01131 5.47222 39898 ft 402 kts 269°
2026-05-05 17:00 41.01483 5.39841 39900 ft 401 kts 269°
2026-05-05 17:00 41.01857 5.32473 39916 ft 402 kts 269°
2026-05-05 17:01 41.02051 5.28760 39730 ft 406 kts 269°
2026-05-05 17:01 41.02272 5.25061 39252 ft 399 kts 270°
2026-05-05 17:01 41.02488 5.21436 38688 ft 389 kts 269°
2026-05-05 17:01 41.02673 5.17901 37897 ft 382 kts 268°
2026-05-05 17:02 41.02841 5.14460 36919 ft 378 kts 268°
2026-05-05 17:02 41.03006 5.10943 35837 ft 377 kts 267°
2026-05-05 17:02 41.03167 5.07521 34752 ft 378 kts 267°
2026-05-05 17:02 41.03331 5.04027 34019 ft 383 kts 266°
2026-05-05 17:03 41.03499 5.00468 33755 ft 390 kts 267°
2026-05-05 17:03 41.03672 4.96879 33449 ft 388 kts 267°
2026-05-05 17:03 41.03850 4.93334 33008 ft 384 kts 267°
2026-05-05 17:03 41.04027 4.89806 32451 ft 383 kts 267°
2026-05-05 17:04 41.04200 4.86300 31913 ft 381 kts 267°
2026-05-05 17:04 41.04371 4.82812 31373 ft 379 kts 267°
2026-05-05 17:04 41.04539 4.79351 30974 ft 374 kts 267°
2026-05-05 17:04 41.04763 4.75942 30628 ft 369 kts 269°
2026-05-05 17:05 41.05071 4.72589 30267 ft 365 kts 270°
2026-05-05 17:05 41.05419 4.69283 29891 ft 361 kts 271°
2026-05-05 17:05 41.05782 4.66006 29493 ft 359 kts 271°
2026-05-05 17:05 41.06153 4.62730 29119 ft 358 kts 271°
2026-05-05 17:06 41.06521 4.59469 28740 ft 357 kts 271°
2026-05-05 17:06 41.06883 4.56226 28397 ft 355 kts 271°
2026-05-05 17:06 41.07238 4.53004 27994 ft 352 kts 271°
2026-05-05 17:06 41.07584 4.49810 27619 ft 349 kts 271°
2026-05-05 17:07 41.07924 4.46634 27246 ft 347 kts 271°
2026-05-05 17:07 41.08261 4.43480 26889 ft 345 kts 271°
2026-05-05 17:07 41.08596 4.40331 26530 ft 344 kts 271°
2026-05-05 17:07 41.08928 4.37206 26167 ft 342 kts 271°
2026-05-05 17:08 41.09148 4.35142 25917 ft 341 kts 271°
2026-05-05 17:08 41.09476 4.32040 25537 ft 339 kts 271°
2026-05-05 17:08 41.09908 4.27955 25053 ft 336 kts 271°
2026-05-05 17:08 41.10231 4.24891 24695 ft 335 kts 272°
2026-05-05 17:09 41.10551 4.21843 24338 ft 333 kts 272°
2026-05-05 17:09 41.10870 4.18805 24001 ft 332 kts 271°
2026-05-05 17:09 41.11084 4.16764 23737 ft 330 kts 271°
2026-05-05 17:09 41.11398 4.13763 23350 ft 327 kts 272°
2026-05-05 17:10 41.11704 4.10823 22962 ft 325 kts 272°
2026-05-05 17:10 41.12012 4.07850 22617 ft 325 kts 272°
2026-05-05 17:10 41.12319 4.04886 22256 ft 324 kts 272°
2026-05-05 17:10 41.12624 4.01934 21915 ft 323 kts 272°
2026-05-05 17:11 41.12928 3.98982 21558 ft 323 kts 272°
2026-05-05 17:11 41.13231 3.96035 21201 ft 322 kts 272°
2026-05-05 17:11 41.13532 3.93096 20852 ft 321 kts 272°
2026-05-05 17:11 41.13833 3.90157 20498 ft 321 kts 272°
2026-05-05 17:12 41.14132 3.87227 20144 ft 320 kts 272°
2026-05-05 17:12 41.14429 3.84305 19796 ft 320 kts 272°
2026-05-05 17:12 41.14726 3.81380 19448 ft 319 kts 272°
2026-05-05 17:12 41.15020 3.78486 19242 ft 312 kts 272°
2026-05-05 17:13 41.15309 3.75655 18934 ft 308 kts 272°
2026-05-05 17:13 41.15592 3.72835 18600 ft 308 kts 272°
2026-05-05 17:13 41.15873 3.70016 18276 ft 309 kts 272°
2026-05-05 17:13 41.16156 3.67183 17909 ft 309 kts 272°
2026-05-05 17:14 41.16438 3.64366 17563 ft 308 kts 272°
2026-05-05 17:14 41.16719 3.61549 17238 ft 307 kts 272°
2026-05-05 17:14 41.16998 3.58742 16897 ft 306 kts 272°
2026-05-05 17:14 41.17276 3.55944 16572 ft 305 kts 272°
2026-05-05 17:15 41.17552 3.53154 16242 ft 305 kts 272°
2026-05-05 17:15 41.17827 3.50374 15908 ft 304 kts 272°
2026-05-05 17:15 41.18097 3.47629 15568 ft 303 kts 272°
2026-05-05 17:15 41.18369 3.44860 15248 ft 302 kts 272°
2026-05-05 17:16 41.18640 3.42100 14911 ft 301 kts 272°
2026-05-05 17:16 41.18909 3.39345 14582 ft 301 kts 272°
2026-05-05 17:16 41.19177 3.36592 14251 ft 300 kts 272°
2026-05-05 17:16 41.19444 3.33845 13918 ft 300 kts 272°
2026-05-05 17:17 41.19710 3.31103 13575 ft 299 kts 272°
2026-05-05 17:17 41.19975 3.28368 13221 ft 298 kts 272°
2026-05-05 17:17 41.20239 3.25634 12886 ft 297 kts 272°
2026-05-05 17:17 41.20499 3.22946 12659 ft 289 kts 272°
2026-05-05 17:18 41.20757 3.20346 12492 ft 279 kts 272°
2026-05-05 17:18 41.21010 3.17843 12332 ft 269 kts 272°
2026-05-05 17:18 41.21261 3.15428 12195 ft 259 kts 272°
2026-05-05 17:18 41.21508 3.13094 12042 ft 250 kts 272°
2026-05-05 17:19 41.21751 3.10843 11852 ft 245 kts 273°
2026-05-05 17:19 41.21995 3.08557 11226 ft 256 kts 273°
2026-05-05 17:19 41.22498 3.06206 10655 ft 278 kts 291°
2026-05-05 17:19 41.23507 3.03948 10204 ft 287 kts 298°
2026-05-05 17:20 41.24615 3.01751 9920 ft 285 kts 299°
2026-05-05 17:20 41.25727 2.99565 9880 ft 285 kts 299°
2026-05-05 17:20 41.26831 2.97381 9878 ft 284 kts 298°
2026-05-05 17:20 41.27828 2.95123 9875 ft 282 kts 294°
2026-05-05 17:21 41.28752 2.92823 9877 ft 282 kts 293°
2026-05-05 17:21 41.29668 2.90515 9881 ft 282 kts 293°
2026-05-05 17:21 41.30581 2.88208 9880 ft 282 kts 293°
2026-05-05 17:22 41.32427 2.83556 9324 ft 286 kts 293°
2026-05-05 17:22 41.33340 2.81253 9104 ft 277 kts 293°
2026-05-05 17:22 41.34236 2.78991 8618 ft 274 kts 293°
2026-05-05 17:22 41.35108 2.76773 8056 ft 267 kts 293°
2026-05-05 17:23 41.35943 2.74635 7727 ft 253 kts 293°
2026-05-05 17:23 41.36734 2.72605 7370 ft 243 kts 293°
2026-05-05 17:23 41.37489 2.70653 7021 ft 239 kts 293°
2026-05-05 17:23 41.38244 2.68681 6701 ft 239 kts 293°
2026-05-05 17:24 41.38992 2.66700 6362 ft 240 kts 293°
2026-05-05 17:24 41.39728 2.64702 6009 ft 240 kts 293°
2026-05-05 17:24 41.40460 2.62694 5652 ft 241 kts 293°
2026-05-05 17:24 41.41188 2.60682 5297 ft 241 kts 293°
2026-05-05 17:25 41.41914 2.58661 4957 ft 242 kts 293°
2026-05-05 17:25 41.42401 2.57294 4714 ft 242 kts 293°
2026-05-05 17:25 41.43352 2.54605 4248 ft 242 kts 293°
2026-05-05 17:25 41.43970 2.52532 3890 ft 240 kts 278°
2026-05-05 17:26 41.43971 2.50342 3541 ft 234 kts 260°
2026-05-05 17:26 41.43540 2.48303 3179 ft 224 kts 249°
2026-05-05 17:26 41.42929 2.46437 2811 ft 216 kts 246°
2026-05-05 17:26 41.42316 2.44638 2474 ft 210 kts 246°
2026-05-05 17:27 41.41722 2.42910 2247 ft 199 kts 245°
2026-05-05 17:27 41.41155 2.41276 2257 ft 193 kts 246°
2026-05-05 17:27 41.40593 2.39657 2285 ft 190 kts 245°
2026-05-05 17:27 41.40038 2.38058 2285 ft 190 kts 246°
2026-05-05 17:28 41.39486 2.36459 2288 ft 190 kts 246°
2026-05-05 17:28 41.38936 2.34858 2283 ft 190 kts 246°
2026-05-05 17:28 41.38398 2.33278 2290 ft 190 kts 246°
2026-05-05 17:28 41.37894 2.31635 2280 ft 188 kts 256°
2026-05-05 17:29 41.37661 2.29923 2315 ft 189 kts 244°
2026-05-05 17:29 41.36996 2.28441 2236 ft 190 kts 240°
2026-05-05 17:29 41.36315 2.26950 2276 ft 184 kts 240°
2026-05-05 17:29 41.35715 2.25519 2308 ft 171 kts 244°
2026-05-05 17:30 41.35210 2.24122 2292 ft 163 kts 247°
2026-05-05 17:30 41.34790 2.22750 2105 ft 159 kts 249°
2026-05-05 17:30 41.34356 2.21410 1870 ft 156 kts 246°
2026-05-05 17:30 41.33913 2.20133 1659 ft 148 kts 245°
2026-05-05 17:31 41.33502 2.18942 1467 ft 134 kts 247°
2026-05-05 17:31 41.33123 2.17828 1292 ft 132 kts 246°
2026-05-05 17:31 41.32742 2.16713 1115 ft 134 kts 246°
2026-05-05 17:31 41.32351 2.15580 928 ft 136 kts 246°
2026-05-05 17:32 41.31968 2.14465 699 ft 129 kts 246°
2026-05-05 17:32 41.31600 2.13378 517 ft 129 kts 245°
2026-05-05 17:32 41.31228 2.12287 376 ft 130 kts 244°
2026-05-05 17:32 41.30852 2.11189 197 ft 131 kts 244°
2026-05-05 17:33 41.30474 2.10086 39 ft 131 kts 245°
2026-05-05 17:33 41.30144 2.09125 23 ft 85 kts 247°
2026-05-05 17:33 41.29968 2.08682 26 ft 44 kts 231°
2026-05-05 17:33 41.29789 2.08494 23 ft 0 kts 217°
2026-05-05 17:35 41.29778 2.08483 22 ft 10 kts 217°
2026-05-05 17:35 41.29712 2.08400 23 ft 14 kts 235°
2026-05-05 17:36 41.29662 2.08280 22 ft 14 kts 246°
2026-05-05 17:36 41.29624 2.08160 20 ft 12 kts 248°
2026-05-05 17:36 41.29600 2.08082 21 ft 8 kts 248°
2026-05-05 17:36 41.29598 2.08075 21 ft 0 kts 248°
2026-05-05 17:37 41.29596 2.08070 20 ft 2 kts 247°
2026-05-05 17:37 41.29591 2.08054 23 ft 4 kts 246°
2026-05-05 17:37 41.29566 2.07980 23 ft 14 kts 245°
2026-05-05 17:37 41.29505 2.07808 23 ft 23 kts 245°
2026-05-05 17:38 41.29437 2.07608 21 ft 24 kts 245°
2026-05-05 17:38 41.29340 2.07557 21 ft 11 kts 155°
2026-05-05 17:38 41.29270 2.07599 23 ft 11 kts 156°
2026-05-05 17:38 41.29193 2.07644 24 ft 13 kts 156°
2026-05-05 17:39 41.29132 2.07632 25 ft 8 kts 222°
2026-05-05 17:39 41.29106 2.07577 27 ft 5 kts 248°
2026-05-05 17:39 41.29098 2.07552 26 ft 2 kts 248°
2026-05-05 17:39 41.29097 2.07547 25 ft 0 kts 248°